This is the latest recevied weather packets stored in our database for station/object KB2SKP. If no packets are shown the sender has not sent any weather packets the latest 10 day(s).
| Time | Temp. | Humidity | Pressure | Rain* | Wind** | Luminosity | Snow |
|---|---|---|---|---|---|---|---|
| 1777469670 | 13.89° C | 77% | 1011.6 hPa | 0 mm | - | 59 W/m² | - |
| 1777469365 | 13.89° C | 77% | 1011.4 hPa | 0 mm | - | 51 W/m² | - |
| 1777469061 | 13.89° C | 78% | 1011.6 hPa | 0 mm | - | 52 W/m² | - |
| 1777468756 | 13.89° C | 78% | 1011.3 hPa | 0 mm | - | 59 W/m² | - |
| 1777468452 | 13.89° C | 78% | 1011.3 hPa | 0 mm | - | 70 W/m² | - |
| 1777468149 | 13.89° C | 78% | 1011.3 hPa | 0 mm | - | 56 W/m² | - |
| 1777467844 | 13.33° C | 78% | 1011.1 hPa | 0 mm | - | 47 W/m² | - |
| 1777467540 | 13.33° C | 80% | 1011.5 hPa | 0 mm | - | 58 W/m² | - |
| 1777467235 | 13.33° C | 80% | 1011.3 hPa | 0 mm | - | 64 W/m² | - |
| 1777466932 | 13.33° C | 82% | 1011.3 hPa | 0 mm | - | 61 W/m² | - |
| 1777466631 | 12.78° C | 80% | 1011.2 hPa | 0 mm | - | 57 W/m² | - |
| 1777466327 | 12.78° C | 81% | 1011.4 hPa | 0 mm | - | 46 W/m² | - |
| 1777466023 | 12.78° C | 82% | 1010.8 hPa | 0 mm | - | 39 W/m² | - |
| 1777465720 | 12.78° C | 82% | 1010.9 hPa | 0 mm | - | 38 W/m² | - |
| 1777465415 | 12.78° C | 81% | 1011.3 hPa | 0 mm | - | 36 W/m² | - |
| 1777465114 | 12.78° C | 82% | 1011.1 hPa | 0 mm | - | 36 W/m² | - |
| 1777464810 | 12.78° C | 82% | 1011.3 hPa | 0 mm | - | 23 W/m² | - |
| 1777464505 | 12.78° C | 84% | 1011 hPa | 0 mm | - | 33 W/m² | - |
| 1777464201 | 12.22° C | 83% | 1011.2 hPa | 0 mm | - | 38 W/m² | - |
| 1777463902 | 12.22° C | 84% | 1011.1 hPa | 0 mm | - | 38 W/m² | - |
| 1777463598 | 12.22° C | 84% | 1011.2 hPa | 0 mm | - | 36 W/m² | - |
| 1777463293 | 12.22° C | 84% | 1011.5 hPa | 0 mm | - | 32 W/m² | - |
| 1777462990 | 11.67° C | 84% | 1011 hPa | 0 mm | - | 32 W/m² | - |
| 1777462685 | 11.67° C | 86% | 1011.4 hPa | 0 mm | - | 35 W/m² | - |
| 1777462381 | 11.67° C | 86% | 1011.2 hPa | 0 mm | - | 34 W/m² | - |
* Rain latest hour (hover to see other rain measurements)
** Current wind speed in m/s (hover to see current wind gust speed)